Location: Maccacari
(45.1333°N, 11.1333°E)
Time: 05:13:47
(UTC+00:00)

Transit 4A - All Passes

Search period start: 28 January 2021 00:00
Search period end: 07 February 2021 00:00
Orbit: 864 x 980 km, 66.8° (Epoch: 27 January)

Date Brightness Start Highest point End Pass type
(mag) Time Alt. Az. Time Alt. Az. Time Alt. Az.
28 Jan - 01:24:14 10° NNW 01:30:11 45° NE 01:35:55 10° ESE night (unlit)
28 Jan - 03:10:53 10° NW 03:16:26 37° WSW 03:21:49 10° S night (unlit)
28 Jan - 16:32:53 10° S 16:38:44 39° ESE 16:44:35 10° NE daylight
28 Jan - 18:18:56 10° WSW 18:25:04 45° NW 18:31:10 10° NNE visible
28 Jan - 20:09:40 10° WNW 20:13:09 15° NNW 20:16:36 10° N visible
28 Jan - 23:47:51 10° N 23:51:56 18° NNE 23:55:55 10° ENE night (unlit)
29 Jan - 01:33:29 10° NNW 01:39:38 62° NE 01:45:34 10° SE night (unlit)
29 Jan - 03:20:40 10° NW 03:25:31 25° WSW 03:30:14 10° SSW night (unlit)
29 Jan - 16:41:41 10° SSW 16:47:55 56° ESE 16:54:08 10° NE visible
29 Jan - 18:28:50 10° WSW 18:34:37 34° NW 18:40:21 10° NNE visible
29 Jan - 20:20:31 10° NW 20:23:04 12° NNW 20:25:36 10° N visible
29 Jan - 23:56:57 10° NNW 00:01:42 22° NE 00:06:20 10° E night (unlit)
30 Jan - 01:42:47 10° NNW 01:49:01 86° ENE 01:55:00 10° SSE night (unlit)
30 Jan - 03:30:50 10° WNW 03:34:30 17° WSW 03:38:07 10° SW night (unlit)
30 Jan - 15:08:37 10° SE 15:11:47 14° ESE 15:14:57 10° ENE daylight
30 Jan - 16:50:46 10° SSW 16:57:10 79° ESE 17:03:34 10° NE visible
30 Jan - 18:38:56 10° W 18:44:14 26° NW 18:49:30 10° NNE visible
30 Jan - 20:31:40 10° NNW 20:33:03 11° NNW 20:34:25 10° N visible
30 Jan - 22:21:05 10° N 22:22:41 11° NNE 22:24:17 10° NNE visible
31 Jan - 00:06:05 10° NNW 00:11:23 28° NE 00:16:32 10° E night (unlit)
31 Jan - 01:52:11 10° NW 01:58:18 68° WSW 02:04:12 10° SSE night (unlit)
31 Jan - 03:42:31 10° W 03:43:25 10° W 03:44:19 10° WSW night (unlit)
31 Jan - 15:16:07 10° SSE 15:20:46 21° ESE 15:25:24 10° ENE daylight
31 Jan - 17:00:05 10° SW 17:06:30 76° WNW 17:12:54 10° NNE visible
31 Jan - 18:49:15 10° W 18:53:57 21° NW 18:58:38 10° NNE visible
31 Jan - 22:29:58 10° N 22:32:39 13° NNE 22:35:18 10° NE visible
01 Feb - 00:15:17 10° NNW 00:21:00 37° NE 00:26:31 10° ESE night (unlit)
01 Feb - 02:01:40 10° NW 02:07:30 47° WSW 02:13:08 10° S night (unlit)
01 Feb - 15:24:19 10° SSE 15:29:50 31° ESE 15:35:19 10° NE daylight
01 Feb - 17:09:38 10° SW 17:15:55 55° NW 17:22:10 10° NNE visible
01 Feb - 18:59:47 10° WNW 19:03:45 17° NNW 19:07:43 10° N visible
01 Feb - 22:38:59 10° N 22:42:33 15° NNE 22:46:03 10° ENE night (unlit)
02 Feb - 00:24:29 10° NNW 00:30:30 50° NE 00:36:18 10° SE night (unlit)
02 Feb - 02:11:19 10° NW 02:16:37 32° WSW 02:21:47 10° S night (unlit)
02 Feb - 15:32:57 10° S 15:38:57 45° ESE 15:44:58 10° NE daylight
02 Feb - 17:19:24 10° WSW 17:25:25 41° NW 17:31:23 10° NNE visible
02 Feb - 19:10:29 10° NW 19:13:38 14° NNW 19:16:45 10° N visible
02 Feb - 22:48:04 10° NNW 22:52:22 19° NNE 22:56:35 10° ENE night (unlit)
03 Feb - 00:33:46 10° NNW 00:39:56 70° NE 00:45:53 10° SE night (unlit)
03 Feb - 02:21:11 10° WNW 02:25:40 22° WSW 02:30:02 10° SSW night (unlit)
03 Feb - 14:02:00 10° ESE 14:03:00 10° E 14:04:00 10° E daylight
03 Feb - 15:41:51 10° SSW 15:48:10 64° ESE 15:54:27 10° NE daylight
03 Feb - 17:29:23 10° WSW 17:35:00 31° NW 17:40:34 10° NNE visible
03 Feb - 19:21:26 10° NW 19:23:35 12° NNW 19:25:41 10° N visible
03 Feb - 21:12:48 10° N 21:13:12 10° N 21:13:36 10° NNE visible
03 Feb - 22:57:11 10° NNW 23:02:07 24° NE 23:06:55 10° E night (unlit)
04 Feb - 00:43:06 10° NNW 00:49:17 85° WSW 00:55:14 10° SSE night (unlit)
04 Feb - 02:31:37 10° WNW 02:34:39 14° WSW 02:37:36 10° SW night (unlit)
04 Feb - 14:08:08 10° SE 14:11:56 17° ESE 14:15:44 10° ENE daylight
04 Feb - 15:51:02 10° SSW 15:57:27 88° ESE 16:03:51 10° NNE daylight
04 Feb - 17:39:34 10° W 17:44:39 24° NW 17:49:42 10° NNE visible
04 Feb - 19:32:53 10° NNW 19:33:34 10° NNW 19:34:16 10° N visible
04 Feb - 21:21:13 10° N 21:23:12 11° NNE 21:25:10 10° NE visible
04 Feb - 23:06:20 10° NNW 23:11:46 31° NE 23:17:03 10° ESE night (unlit)
05 Feb - 00:52:30 10° NW 00:58:32 59° WSW 01:04:20 10° SSE night (unlit)
05 Feb - 14:15:57 10° SSE 14:20:57 25° ESE 14:25:56 10° NE daylight
05 Feb - 16:00:26 10° SW 16:06:49 68° NW 16:13:10 10° NNE daylight
05 Feb - 17:49:57 10° WNW 17:54:24 19° NNW 17:58:49 10° NNE visible
05 Feb - 21:30:09 10° N 21:33:08 14° NNE 21:36:04 10° NE visible
05 Feb - 23:15:31 10° NNW 23:21:21 41° NE 23:26:57 10° ESE night (unlit)
06 Feb - 01:02:03 10° NW 01:07:42 41° WSW 01:13:11 10° S night (unlit)
06 Feb - 14:24:19 10° S 14:30:01 35° ESE 14:35:43 10° NE daylight
06 Feb - 16:10:04 10° SW 16:16:15 49° NW 16:22:24 10° NNE daylight
06 Feb - 18:00:33 10° WNW 18:04:13 16° NNW 18:07:53 10° N visible
06 Feb - 21:39:11 10° N 21:43:00 16° NNE 21:46:45 10° ENE visible
06 Feb - 23:24:45 10° NNW 23:30:50 56° NE 23:36:40 10° SE night (unlit)
